Temp
16 14 13 13 12 12 12 12 12 11 12 11 11 11 11 12 14 14 14 15 15 16 17 17 17 19 20 20 20 20 17 17 18 17 17 17 18 18 19 18 18 17 17
15 13 12 11 10 10 10 10 10 10 9 8 8 8 8 10 11 11 13 14 13 14 14 14 15 16 17 18 18 19 19 19 18 18 17 16 15 17 18 18 18 17 18
14 12 11 9 8 8 8 8 8 8 7 7 7 6 7 7 8 10 11 12 12 12 12 13 13 14 15 17 18 18 19 19 17 16 14 14 16 14 15 16 17 18 18
13 11 10 8 7 7 7 7 6 6 6 6 5 4 4 4 4 5 5 7 9 10 10 10 12 13 14 15 17 17 17 18 16 15 16 14 14 13 14 14 15 15 17
10 10 9 8 7 6 6 5 5 5 4 4 4 3 3 3 3 4 4 5 5 6 9 9 9 11 13 15 16 16 16 17 15 15 14 14 14 15 13 13 14 14 15
10 10 8 7 6 5 5 4 3 3 3 2 2 3 2 2 3 3 4 5 5 6 6 7 8 9 11 13 15 16 16 16 16 15 16 16 15 15 13 12 13 15 14
9 8 7 6 5 4 4 4 2 2 1 1 1 2 2 2 2 2 3 3 4 5 6 6 7 8 9 11 13 15 15 14 14 15 15 15 16 17 16 15 12 12 14
8 7 7 6 5 4 3 2 2 2 1 0 0 1 1 1 1 1 2 2 4 4 5 5 7 7 9 10 12 14 15 15 14 15 15 14 16 16 16 16 13 12 13
6 6 5 4 4 3 2 2 1 1 0 -0 -1 -0 0 0 0 1 1 2 2 3 3 4 5 7 9 10 11 14 15 15 15 14 15 15 15 17 17 15 16 15 13
5 5 4 4 3 2 2 1 1 0 -0 -1 -1 -1 -1 -0 -0 -0 0 0 1 2 3 3 4 6 9 11 11 12 14 14 15 16 16 15 15 15 14 15 15 15 14
5 4 3 3 2 2 2 1 -0 -1 -1 -1 -1 -1 -1 -1 -1 -1 -1 -1 -0 0 1 2 3 6 8 12 12 12 14 15 15 13 14 15 15 15 14 14 14 14 15
4 3 2 2 1 1 1 0 -1 -1 -1 -1 -1 -2 -1 -1 -1 -2 -2 -2 -2 -1 -0 1 2 3 6 11 13 13 14 15 14 14 13 13 14 15 15 15 14 13 13
3 2 2 1 1 1 0 -1 -2 -2 -2 -2 -2 -2 -2 -2 -2 -2 -3 -3 -3 -2 -2 -1 0 1 2 5 9 13 15 15 14 14 13 13 13 13 14 14 13 13 13
3 2 1 1 0 -0 -1 -1 -2 -2 -2 -2 -2 -2 -2 -2 -2 -3 -3 -3 -3 -3 -3 -2 -2 -1 0 1 4 10 13 13 14 14 13 13 14 14 14 15 15 13 13
2 1 0 0 -1 -1 -2 -2 -2 -2 -3 -2 -2 -3 -2 -2 -2 -2 -3 -3 -4 -4 -4 -3 -3 -2 -1 -1 1 6 10 14 12 14 14 13 13 14 14 15 13 13 13
1 0 -0 -1 -1 -1 -2 -2 -3 -3 -3 -3 -3 -3 -3 -3 -3 -3 -3 -4 -4 -4 -4 -4 -3 -3 -3 -2 -0 2 7 8 6 11 12 11 13 14 14 14 13 13 13
-0 -1 -1 -2 -2 -2 -2 -3 -3 -3 -3 -4 -4 -3 -4 -4 -4 -3 -3 -4 -4 -5 -5 -5 -4 -3 -3 -3 -1 -1 0 1 0 0 3 6 6 9 11 13 13 13 13
-1 -1 -2 -2 -2 -2 -2 -3 -3 -3 -3 -4 -4 -4 -5 -5 -4 -4 -4 -4 -4 -5 -5 -5 -5 -4 -3 -4 -3 -2 -1 0 -1 -2 -2 -0 2 3 4 6 9 9 9
-3 -3 -2 -3 -3 -3 -2 -2 -3 -3 -3 -4 -4 -5 -5 -6 -6 -6 -6 -5 -6 -6 -5 -6 -5 -5 -4 -4 -4 -4 -4 -3 -2 -2 -3 -3 -2 0 1 3 2 4 4
-2 -3 -3 -4 -4 -4 -3 -2 -2 -3 -3 -4 -4 -4 -5 -6 -6 -6 -7 -6 -6 -7 -7 -6 -6 -6 -5 -4 -4 -4 -4 -4 -4 -4 -4 -3 -4 -4 -1 -0 -1 -2 -1
-3 -4 -4 -5 -5 -4 -4 -3 -3 -3 -3 -3 -4 -4 -5 -6 -6 -7 -7 -7 -7 -7 -7 -7 -6 -6 -6 -5 -4 -4 -4 -5 -5 -5 -4 -5 -5 -4 -4 -4 -4 -4 -4
-4 -4 -5 -5 -5 -5 -4 -4 -4 -3 -3 -4 -4 -5 -5 -6 -6 -7 -7 -7 -7 -7 -7 -7 -7 -6 -6 -6 -5 -5 -5 -5 -5 -5 -5 -5 -5 -5 -5 -5 -5 -4 -5
-5 -4 -5 -6 -6 -6 -6 -6 -5 -4 -4 -4 -5 -5 -5 -6 -6 -7 -7 -7 -7 -7 -7 -7 -7 -6 -6 -6 -6 -6 -6 -6 -6 -6 -6 -5 -5 -5 -5 -5 -5 -5 -5
-5 -6 -6 -7 -7 -7 -6 -6 -5 -5 -5 -5 -5 -5 -5 -5 -6 -7 -7 -7 -7 -7 -7 -7 -7 -7 -6 -7 -7 -7 -7 -6 -6 -7 -6 -6 -6 -6 -6 -5 -5 -5 -6
-7 -7 -8 -8 -8 -7 -6 -6 -6 -6 -5 -5 -5 -5 -5 -5 -6 -6 -6 -7 -8 -7 -7 -7 -8 -7 -7 -7 -7 -7 -8 -8 -8 -7 -8 -8 -8 -8 -7 -7 -6 -6 -6
-8 -8 -9 -9 -9 -8 -7 -6 -6 -6 -6 -6 -6 -6 -6 -6 -6 -6 -6 -7 -8 -8 -8 -7 -7 -8 -8 -8 -8 -8 -8 -8 -9 -9 -9 -9 -9 -9 -9 -8 -8 -7 -7
Height
734 731 728 729 730 732 733 735 736 739 743 745 744 744 743 743 743 743 742 741 739 739 738 736 735 736 737 738 740 742 745 747 749 754 756 758 758 762 766 768 771 773 774
746 733 732 730 731 734 738 739 741 743 746 749 753 753 750 744 743 741 739 737 736 735 735 734 733 732 732 731 734 736 740 741 744 747 750 753 757 756 758 762 764 767 768
739 739 738 736 738 738 742 742 746 749 748 749 752 751 748 746 741 738 736 733 732 731 730 729 729 729 728 726 727 728 731 735 738 743 752 723 744 756 757 756 759 760 763
746 738 741 741 744 746 746 750 751 749 750 750 750 752 751 748 746 743 737 732 729 727 725 724 722 722 722 722 721 722 722 726 730 737 737 737 733 755 759 755 755 756 756
754 748 741 743 749 753 752 760 757 747 752 752 751 752 751 749 744 739 736 730 727 724 721 718 717 715 713 713 714 714 715 717 721 726 733 734 740 743 751 754 751 752 751
748 747 749 754 756 757 756 762 758 747 753 754 754 751 752 750 744 736 732 726 724 721 719 714 711 709 708 705 705 705 707 710 713 717 722 725 730 728 733 741 741 743 744
754 754 756 760 760 760 756 761 755 756 756 753 751 751 751 749 744 736 729 726 720 716 713 709 705 702 700 698 699 697 696 700 706 710 713 716 719 719 720 728 736 734 739
760 762 763 766 764 760 760 766 765 759 755 753 751 752 747 745 741 736 730 725 720 714 710 703 700 696 692 690 691 691 688 690 697 699 702 709 711 712 714 716 724 732 734
775 768 768 771 767 763 771 773 764 758 756 753 750 749 746 743 740 734 729 725 716 709 704 696 693 687 683 681 683 683 680 682 685 686 690 696 701 702 705 709 711 718 726
771 774 774 770 772 778 773 771 767 762 761 756 752 749 745 742 738 733 728 723 712 706 697 692 689 680 675 672 673 674 674 676 677 680 681 686 689 692 694 697 704 709 711
785 782 782 783 782 779 773 772 768 765 759 754 753 751 748 745 738 731 726 719 712 704 698 692 685 677 670 663 663 665 666 668 669 671 673 674 679 683 687 690 696 702 705
784 782 781 780 781 780 778 774 772 769 763 759 760 757 751 744 738 732 726 719 712 705 698 691 686 676 667 658 655 654 655 659 661 662 665 668 670 672 678 683 691 697 699
786 788 789 787 787 786 782 779 776 770 766 765 761 758 752 745 739 734 727 718 713 707 698 692 687 676 668 658 651 649 648 650 652 655 656 657 662 667 673 678 685 690 693
795 797 798 795 795 792 787 783 779 772 771 768 763 758 754 749 743 738 728 723 717 711 702 695 690 681 672 661 653 646 644 647 647 646 648 650 654 660 664 669 676 682 689
800 801 801 799 797 793 791 785 779 779 775 770 764 760 758 752 747 741 734 728 722 714 707 703 695 683 675 666 653 647 640 635 640 634 639 644 646 652 662 666 670 672 676
802 802 802 800 799 795 791 788 786 782 777 772 767 764 761 757 752 744 739 735 726 718 716 709 699 689 678 671 658 650 642 642 639 635 636 629 644 652 656 660 661 664 665
806 806 805 803 801 798 794 792 790 786 779 774 770 768 765 760 754 749 744 739 731 728 724 714 706 696 688 675 666 658 649 646 648 641 643 643 648 651 653 651 654 655 660
810 809 808 805 804 802 800 798 793 787 781 777 775 773 769 765 761 754 748 744 741 737 731 722 715 704 696 684 675 664 658 655 652 657 652 653 652 653 655 653 647 653 659
812 811 810 810 808 806 802 798 793 789 786 783 782 779 776 771 766 760 756 751 747 743 738 731 721 715 709 699 686 678 675 671 666 665 669 658 659 654 660 655 652 653 656
813 813 812 811 808 805 802 798 795 794 791 791 788 784 781 776 771 767 763 757 753 751 746 738 732 726 719 711 700 691 685 680 680 679 671 665 668 664 663 663 663 660 659
814 814 812 811 809 806 804 801 799 797 797 795 791 789 784 781 778 774 768 762 758 755 750 745 740 734 728 720 712 705 699 696 692 687 681 681 680 669 669 672 672 667 671
814 814 811 810 810 808 806 805 803 803 801 797 795 792 789 787 783 779 775 769 764 760 757 753 748 742 736 730 723 719 714 708 702 699 697 691 691 680 681 676 682 673 678
815 815 813 813 813 812 810 809 808 806 804 802 799 796 794 791 788 784 780 774 771 767 764 761 757 751 745 738 733 728 723 720 716 714 709 703 695 693 689 687 689 683 684
817 817 817 817 818 816 813 812 811 811 808 805 802 800 798 796 793 790 786 783 778 775 771 767 763 758 752 747 742 737 732 727 722 719 714 711 708 705 702 697 697 694 691
820 820 821 820 820 819 818 817 815 813 810 808 807 804 802 798 796 793 791 789 786 783 779 775 771 766 760 757 753 747 740 736 732 726 721 718 716 715 713 709 705 705 703
822 822 822 823 824 823 822 820 817 815 814 811 809 806 804 801 799 797 796 795 792 789 786 782 778 775 772 767 761 755 750 742 737 733 732 731 730 727 724 720 716 715 715
Wind_Speed
11 18 23 28 32 31 30 27 24 24 23 24 25 27 26 27 22 22 23 23 22 19 18 20 26 34 37 40 42 37 28 29 34 22 21 27 28 27 28 26 26 26 26
7 13 22 27 30 31 29 27 25 22 21 21 19 14 23 19 24 22 24 23 23 24 24 21 19 25 32 35 32 35 32 31 31 19 11 4 6 21 25 24 26 29 28
14 13 16 23 26 30 28 26 24 21 20 20 21 22 19 20 20 28 28 26 27 27 27 29 27 24 23 32 32 35 37 30 16 16 5 5 3 1 10 23 30 31 30
11 14 14 22 24 27 29 26 22 23 21 21 22 23 17 16 19 23 25 30 29 29 28 27 29 28 30 27 32 34 34 31 21 14 12 18 8 3 2 9 26 30 32
9 12 17 25 25 27 27 22 22 28 22 21 20 19 20 21 24 22 21 23 24 26 28 28 27 28 31 33 30 31 32 34 29 25 18 24 30 23 4 4 6 22 28
15 17 23 23 22 22 22 20 23 32 25 21 20 16 18 22 24 23 24 22 23 24 24 25 27 27 27 32 30 36 35 38 38 31 26 25 24 18 7 3 5 12 18
14 16 16 18 21 22 26 21 27 24 25 23 21 18 17 20 21 23 23 28 25 26 30 30 30 30 31 30 27 35 37 35 32 31 32 35 33 22 27 14 4 3 11
15 15 16 18 19 23 26 23 20 20 25 24 22 19 20 21 22 23 24 26 25 27 31 31 30 35 36 34 32 32 35 33 36 33 30 34 39 33 29 26 9 2 5
11 15 17 20 23 23 19 20 21 22 24 26 24 23 22 23 24 26 25 25 26 28 31 35 35 36 33 32 32 30 35 36 39 37 43 40 36 37 37 32 27 14 6
14 13 14 21 21 17 18 21 20 19 18 21 23 24 24 25 25 25 25 27 30 31 34 35 34 34 32 34 33 31 31 32 37 39 38 37 33 36 34 33 32 30 11
11 11 13 15 16 17 19 21 24 23 25 25 25 25 25 24 25 25 27 28 29 31 30 33 33 30 31 29 32 32 29 31 32 30 34 37 39 35 31 29 29 27 26
13 13 18 19 19 19 19 21 23 22 23 22 21 22 23 25 26 26 27 30 30 29 29 30 31 27 29 23 27 33 29 28 29 31 33 37 33 33 30 26 22 26 27
12 11 14 16 18 18 18 19 21 23 24 22 22 23 26 27 27 29 30 31 31 30 31 30 30 31 30 25 13 19 24 28 31 33 35 36 31 24 22 22 22 22 26
10 9 9 12 13 15 17 18 20 23 23 21 23 25 26 27 28 29 32 32 31 31 32 31 30 30 30 29 23 12 13 13 28 32 37 32 33 24 21 24 25 31 33
9 10 10 11 14 15 16 18 21 21 20 22 24 26 26 27 29 30 30 31 33 33 33 32 31 34 28 33 28 14 13 23 33 24 25 27 31 31 38 32 33 33 29
10 10 11 14 14 17 17 17 18 21 20 22 25 25 25 27 27 31 33 32 32 33 34 36 34 35 34 34 33 13 13 11 18 13 18 11 20 23 29 31 27 29 24
8 8 9 14 15 15 18 18 18 20 23 24 26 26 27 28 30 30 30 33 34 35 34 35 35 38 40 38 35 33 31 32 29 29 14 10 8 12 17 22 26 23 25
5 6 9 11 14 15 15 15 19 22 27 28 27 28 28 27 28 29 30 33 30 31 32 36 37 38 47 45 36 35 37 37 39 40 31 20 13 7 3 14 21 18 14
6 7 9 10 13 15 14 15 20 22 24 26 25 26 27 28 28 29 27 28 30 31 32 34 38 38 39 46 44 35 30 32 37 38 36 35 26 18 6 4 12 18 14
9 9 12 15 19 21 19 18 17 20 21 21 23 28 25 29 29 29 26 28 30 29 30 32 36 35 37 44 44 38 33 33 28 31 36 36 32 29 16 8 4 8 11
12 14 15 16 18 20 20 21 21 23 20 16 26 29 29 27 28 27 31 31 29 28 30 31 33 37 37 39 40 40 36 29 27 29 31 33 31 30 30 25 18 14 7
14 13 15 16 17 19 20 21 22 22 21 23 21 26 29 26 28 28 27 30 29 29 28 29 30 32 36 37 36 34 32 30 30 29 29 29 28 34 29 27 19 18 14
13 12 13 14 18 20 20 19 21 19 20 21 22 21 23 27 26 24 26 28 28 27 27 27 27 29 32 35 35 32 30 28 28 26 25 28 32 32 33 32 28 25 22
14 13 14 14 15 18 19 20 18 15 17 20 22 22 21 20 23 22 23 26 27 24 26 25 27 28 30 32 34 32 31 30 28 28 29 29 30 31 32 32 30 28 27
14 14 12 12 15 17 18 18 17 16 15 17 19 19 19 20 19 20 21 24 28 26 24 26 25 28 30 32 29 32 31 27 26 28 30 31 29 27 27 28 29 27 25
14 16 15 14 12 14 16 16 20 18 16 14 16 20 21 23 22 21 19 19 24 25 25 26 27 27 27 27 27 26 29 29 24 29 27 26 26 26 25 24 23 25 23
Wind_Direction
107 111 101 93 86 77 69 60 52 37 25 16 4 347 340 332 322 318 315 310 308 307 306 299 286 269 256 248 244 242 222 216 220 201 205 210 214 217 221 220 221 221 219
118 101 89 83 79 74 65 55 48 40 29 19 7 353 331 325 324 323 315 313 310 303 296 296 297 285 268 257 242 238 234 233 227 215 204 190 209 213 216 215 223 222 221
129 82 70 72 70 67 62 58 50 43 33 20 2 352 350 334 337 331 326 320 316 309 303 294 287 284 285 261 252 244 240 236 214 216 332 173 171 29 221 222 227 222 224
97 98 84 71 65 61 54 48 50 45 27 14 6 356 348 331 319 318 319 321 318 313 310 302 292 285 276 284 255 249 238 227 203 186 209 316 56 196 295 249 229 226 224
109 84 90 78 67 60 56 42 45 43 28 16 10 357 338 328 325 322 316 321 318 317 313 308 300 290 281 273 262 237 231 229 197 189 199 209 210 203 163 231 220 223 229
100 85 74 74 67 60 54 34 35 36 25 15 9 360 341 328 326 330 324 323 319 312 304 304 303 301 283 269 274 242 231 227 215 215 216 202 201 203 174 179 198 217 222
88 80 73 63 56 49 43 26 27 25 17 16 10 359 345 333 326 327 327 321 317 314 310 309 302 295 287 279 271 244 231 221 220 216 213 214 218 210 199 182 202 169 208
76 72 70 61 55 52 40 25 18 18 13 9 5 357 353 342 335 328 325 315 311 311 308 308 302 294 286 277 263 251 231 225 220 214 221 218 223 212 202 203 165 149 193
64 72 66 54 45 46 36 20 17 15 9 6 1 356 351 348 339 335 330 321 319 320 315 318 307 301 287 271 259 251 233 221 221 221 222 215 220 219 213 211 203 190 188
64 57 54 48 41 35 31 18 16 14 4 4 4 356 352 350 344 341 335 330 331 331 331 325 314 314 304 267 258 249 242 227 224 224 220 216 219 218 210 209 208 205 182
67 67 62 54 40 29 29 19 12 8 11 8 2 357 355 352 352 350 345 341 339 340 335 329 323 319 310 271 251 244 233 230 235 228 216 216 215 211 210 208 207 205 200
47 39 33 30 27 23 22 20 9 6 11 10 4 360 359 1 360 357 353 354 348 347 344 341 335 335 331 315 253 240 227 238 222 219 217 221 214 212 216 204 202 213 213
56 43 29 25 16 13 16 15 8 9 10 11 10 8 8 7 6 3 2 4 358 355 356 353 347 348 347 338 340 250 240 247 237 222 218 216 208 199 197 201 205 218 215
51 48 36 30 20 17 18 13 10 12 10 13 14 13 13 11 12 9 13 11 8 5 3 3 356 357 357 353 332 308 257 259 244 227 217 214 213 218 216 213 236 246 235
55 45 36 30 24 21 17 19 20 13 12 19 19 15 11 15 14 12 11 12 15 15 13 7 4 7 6 5 352 324 293 266 278 220 210 197 193 211 223 216 218 209 205
42 41 38 36 33 30 27 24 20 16 20 22 20 16 14 16 15 19 21 17 16 16 15 16 13 13 12 11 29 28 51 54 19 172 178 165 181 207 220 226 211 200 181
50 42 42 36 31 24 27 26 24 25 29 27 23 18 18 17 20 22 21 18 18 19 16 13 14 20 18 20 30 44 60 59 42 33 50 100 132 176 191 204 201 188 194
61 52 40 32 27 25 27 32 36 38 36 33 27 21 18 17 18 24 26 26 18 19 17 20 20 23 24 24 26 37 50 53 50 39 30 41 52 62 192 169 155 157 164
102 66 65 46 39 29 28 37 39 38 38 31 28 26 22 24 20 20 18 25 26 18 16 19 20 20 23 27 30 36 39 46 52 49 37 38 35 33 3 134 147 140 126
97 86 60 55 46 34 46 33 38 41 38 32 33 37 28 30 27 25 18 31 31 25 19 20 22 20 20 26 33 33 34 37 38 43 37 41 36 40 44 53 68 63 109
100 80 67 54 40 39 38 39 42 40 39 33 39 41 40 30 32 30 31 32 31 26 23 21 20 21 21 23 31 36 37 33 34 36 36 35 36 47 46 48 45 51 54
87 74 64 52 41 38 41 36 36 41 48 47 41 37 42 37 34 34 31 33 32 29 24 21 20 20 21 23 25 30 36 38 40 35 34 39 39 47 49 50 42 60 54
85 72 67 57 47 48 47 35 28 36 41 47 42 38 36 41 40 36 34 32 28 27 25 24 20 18 20 21 23 25 29 39 41 40 42 46 50 51 51 51 49 59 54
75 73 65 58 45 48 53 52 46 40 42 42 40 38 38 31 42 44 44 37 30 28 24 20 20 17 20 23 22 22 25 34 40 40 44 45 47 50 51 50 48 47 48
85 78 71 69 55 55 52 52 55 50 42 41 39 36 33 36 38 46 48 43 40 37 30 25 31 24 21 19 23 26 28 28 35 42 37 31 29 29 28 31 39 41 43
98 85 75 72 63 58 51 54 56 55 48 37 37 39 40 42 42 43 48 45 44 41 39 36 38 35 28 23 23 27 30 32 36 40 33 29 25 23 20 22 24 31 30